N4NVD-13 Weather Reports


Display with metric or nautical units.
time (UTC)temp
F
wind
direction
speed
MPH
gust
MPH
rain 1hr
in
rain 24hr
in
rain mn
in
humidity
%
barometer
mb
20260903070903 77 99 0.0 1.0 0.00 0.00 0.00 99 1012.5
20260903070357 77 114 0.0 2.0 0.00 0.00 0.00 99 1012.6
20260903065852 77 66 0.0 0.0 0.00 0.00 0.00 99 1012.9
20260903065351 76 206 0.0 0.0 0.00 0.00 0.00 99 1012.5
20260903064850 76 254 1.0 2.0 0.00 0.00 0.00 99 1012.7
20260903064346 76 239 2.0 5.0 0.00 0.00 0.00 99 1012.5
20260903063842 76 215 1.0 3.0 0.00 0.00 0.00 99 1012.6
20260903063337 76 204 2.0 3.0 0.00 0.00 0.00 99 1012.4
20260903062833 76 246 0.0 3.0 0.00 0.00 0.00 99 1012.5
20260903062332 76 203 0.0 3.0 0.00 0.00 0.00 99 1013.0
20260903061829 76 203 0.0 2.0 0.00 0.00 0.00 99 1013.1
20260903061327 76 243 1.0 2.0 0.00 0.00 0.00 99 1013.3
20260903060824 76 254 1.0 1.0 0.00 0.00 0.00 98 1013.0
20260903060317 76 246 0.0 2.0 0.00 0.00 0.00 98 1013.1
20260903055816 76 248 0.0 3.0 0.00 0.00 0.00 98 1013.0
20260903055314 76 262 2.0 2.0 0.00 0.00 0.00 98 1013.1
20260903054809 76 270 1.0 2.0 0.00 0.00 0.00 97 1012.9
20260903054309 76 265 2.0 2.0 0.00 0.00 0.00 97 1013.0
20260903053806 76 261 0.0 1.0 0.00 0.00 0.00 97 1013.1
20260903053301 77 249 0.0 0.0 0.00 0.00 0.00 96 1012.7
20260903052756 77 206 0.0 2.0 0.00 0.00 0.00 96 1013.0
20260903052252 77 243 2.0 3.0 0.00 0.00 0.00 95 1012.9
20260903051747 77 199 2.0 3.0 0.00 0.00 0.00 94 1012.9
20260903051242 77 203 0.0 3.0 0.00 0.00 0.00 94 1012.7
20260903050738 77 210 0.0 3.0 0.00 0.00 0.00 94 1012.7
20260903050237 77 124 0.0 4.0 0.00 0.00 0.00 93 1012.9
20260903045732 77 162 1.0 3.0 0.00 0.00 0.00 93 1012.9
20260903045228 77 157 4.0 7.0 0.00 0.00 0.00 93 1012.9
20260903044724 77 155 4.0 5.0 0.00 0.00 0.00 94 1013.1
20260903044219 77 162 0.0 8.0 0.00 0.00 0.00 94 1013.1
20260903043716 77 241 2.0 5.0 0.00 0.00 0.00 95 1013.2
20260903043215 77 169 2.0 4.0 0.00 0.00 0.00 96 1013.0
20260903042714 76 165 0.0 5.0 0.00 0.00 0.00 96 1013.3
20260903042209 76 214 2.0 5.0 0.00 0.00 0.00 96 1013.3
20260903041706 75 240 0.0 3.0 0.00 0.00 0.00 99 1013.1
20260903041202 75 215 3.0 5.0 0.00 0.00 0.00 99 1013.1
20260903040701 74 225 3.0 7.0 0.00 0.00 0.00 99 1012.9
20260903040156 74 99 0.0 6.0 0.00 0.00 0.00 99 1013.1
20260903035652 75 112 0.0 5.0 0.00 0.00 0.00 99 1013.3
20260903035148 75 221 2.0 3.0 0.00 0.00 0.00 99 1013.2
20260903034648 75 141 4.0 4.0 0.00 0.00 0.00 99 1013.2
20260903034143 75 90 2.0 11.0 0.00 0.00 0.00 99 1013.3
20260903033638 75 105 0.0 5.0 0.00 0.00 0.00 99 1013.2
20260903033138 75 150 2.0 4.0 0.00 0.00 0.00 99 1013.3
20260903032633 76 156 2.0 3.0 0.00 0.00 0.00 99 1013.1
20260903032129 76 138 3.0 5.0 0.00 0.00 0.00 99 1013.1
20260903031624 77 155 0.0 4.0 0.00 0.00 0.00 99 1013.3
20260903031119 77 155 3.0 3.0 0.00 0.00 0.00 99 1013.4
20260903030615 77 154 0.0 3.0 0.00 0.00 0.00 99 1013.3
20260903030110 77 105 2.0 5.0 0.00 0.00 0.00 99 1013.3
20260903025605 77 90 2.0 3.0 0.00 0.00 0.00 99 1013.1
20260903025101 78 129 2.0 5.0 0.00 0.00 0.00 99 1013.2
20260903024555 78 194 1.0 5.0 0.00 0.00 0.00 99 1013.0
20260903024049 77 246 0.0 3.0 0.00 0.00 0.00 99 1012.7
20260903023545 77 135 0.0 5.0 0.00 0.00 0.00 99 1012.4
20260903023040 77 228 0.0 3.0 0.00 0.00 0.00 99 1012.4
20260903022539 77 176 2.0 3.0 0.00 0.00 0.00 99 1012.5
20260903022038 77 213 2.0 5.0 0.00 0.00 0.00 99 1012.4
20260903021533 77 98 1.0 3.0 0.00 0.00 0.00 99 1012.2
20260903021028 77 62 5.0 5.0 0.00 0.00 0.00 99 1011.8
20260903020524 77 45 2.0 4.0 0.00 0.00 0.00 99 1012.1
20260903020023 77 98 2.0 6.0 0.00 0.00 0.00 99 1012.2
20260903015519 77 68 3.0 5.0 0.00 0.00 0.00 99 1012.4
20260903015014 78 57 2.0 4.0 0.00 0.00 0.00 98 1012.4
20260903014508 78 31 6.0 9.0 0.00 0.00 0.00 96 1012.4
20260903014003 80 346 4.0 7.0 0.00 0.00 0.00 91 1012.5
20260903013503 83 11 4.0 6.0 0.00 0.00 0.00 84 1012.9
20260903013002 83 15 2.0 6.0 0.00 0.00 0.00 82 1012.6
20260903012501 85 318 3.0 5.0 0.00 0.00 0.00 80 1012.4
20260903012000 84 102 4.0 7.0 0.00 0.00 0.00 80 1012.1
20260903011455 84 265 2.0 2.0 0.00 0.00 0.00 80 1011.8
20260903010950 84 263 0.0 2.0 0.00 0.00 0.00 80 1011.6
20260903010445 84 74 1.0 3.0 0.00 0.00 0.00 79 1011.8
20260903005943 85 81 0.0 8.0 0.00 0.00 0.00 79 1011.2
20260903005439 85 101 6.0 10.0 0.00 0.00 0.00 77 1011.3
20260903004935 86 74 4.0 9.0 0.00 0.00 0.00 76 1011.2
20260903004429 87 57 3.0 7.0 0.00 0.00 0.00 73 1011.3
20260903003920 88 51 4.0 8.0 0.00 0.00 0.00 71 1010.9
20260903003419 89 75 4.0 7.0 0.00 0.00 0.00 70 1010.5
20260903002914 90 166 0.0 5.0 0.00 0.00 0.00 68 1010.2
20260903002409 92 7 3.0 6.0 0.00 0.00 0.00 63 1010.0
20260903001909 93 102 0.0 3.0 0.00 0.00 0.00 59 1009.7
20260903001404 93 83 1.0 2.0 0.00 0.00 0.00 61 1009.6
20260903000903 93 160 1.0 1.0 0.00 0.00 0.00 61 1009.8
20260903000359 93 160 0.0 2.0 0.00 0.00 0.00 61 1009.7
20260902235857 93 157 0.0 2.0 0.00 0.00 0.00 62 1010.0
20260902235352 93 90 0.0 2.0 0.00 0.00 0.00 62 1009.8
20260902234851 93 74 1.0 1.0 0.00 0.00 0.00 62 1009.9
20260902234346 94 71 2.0 2.0 0.00 0.00 0.00 61 1010.0
20260902233844 95 33 0.0 2.0 0.00 0.00 0.00 61 1009.8
20260902233340 95 151 0.0 3.0 0.00 0.00 0.00 63 1009.8
20260902232838 94 114 1.0 3.0 0.00 0.00 0.00 62 1009.9
20260902232333 94 151 0.0 3.0 0.00 0.00 0.00 64 1009.8
20260902231833 94 126 0.0 5.0 0.00 0.00 0.00 65 1010.0
20260902231327 94 164 0.0 3.0 0.00 0.00 0.00 67 1010.0
20260902230823 93 135 0.0 2.0 0.00 0.00 0.00 69 1010.0
20260902230322 93 90 0.0 5.0 0.00 0.00 0.00 64 1009.9
20260902225816 92 74 2.0 3.0 0.00 0.00 0.00 66 1009.9
20260902225312 92 90 2.0 4.0 0.00 0.00 0.00 66 1009.9
20260902224810 92 81 0.0 2.0 0.00 0.00 0.00 66 1009.8
20260902224305 92 90 0.0 3.0 0.00 0.00 0.00 65 1009.9
20260902223801 93 64 3.0 5.0 0.00 0.00 0.00 65 1009.9
20260902223256 92 64 3.0 3.0 0.00 0.00 0.00 66 1009.9
20260902222754 91 55 2.0 3.0 0.00 0.00 0.00 68 1009.8
20260902222248 90 81 0.0 3.0 0.00 0.00 0.00 69 1009.9
20260902221743 90 63 0.0 3.0 0.00 0.00 0.00 68 1009.8
20260902221242 89 90 1.0 3.0 0.00 0.00 0.00 69 1009.7
20260902220738 89 68 2.0 3.0 0.00 0.00 0.00 69 1009.8
20260902220238 89 48 2.0 3.0 0.00 0.00 0.00 71 1009.9
20260902215733 89 80 4.0 5.0 0.00 0.00 0.00 71 1010.1
20260902215228 89 96 2.0 3.0 0.00 0.00 0.00 72 1010.1
20260902214724 88 71 3.0 3.0 0.00 0.00 0.00 72 1009.8
20260902214223 89 112 3.0 5.0 0.00 0.00 0.00 71 1010.3
20260902213719 90 90 1.0 3.0 0.00 0.00 0.00 68 1010.1
20260902213219 89 90 2.0 6.0 0.00 0.00 0.00 67 1010.2
20260902212718 89 109 4.0 6.0 0.00 0.00 0.00 68 1010.3
20260902212215 89 90 3.0 4.0 0.00 0.00 0.00 77 1010.2
20260902211711 89 71 3.0 5.0 0.00 0.00 0.00 74 1010.3
20260902211206 97 16 3.0 6.0 0.00 0.00 0.00 55 1010.7
20260902210700 99 331 1.0 3.0 0.00 0.00 0.00 47 1010.3
20260902210155 98 334 0.0 3.0 0.00 0.00 0.00 46 1010.4
20260902205654 98 230 4.0 4.0 0.00 0.00 0.00 46 1010.3
20260902205149 100 236 3.0 5.0 0.00 0.00 0.00 45 1010.6
20260902204644 100 263 6.0 6.0 0.00 0.00 0.00 45 1010.3
20260902204138 102 230 3.0 8.0 0.00 0.00 0.00 44 1010.5
20260902203634 101 225 4.0 7.0 0.00 0.00 0.00 45 1010.5
20260902203128 100 220 0.0 5.0 0.00 0.00 0.00 46 1010.6
20260902202624 99 247 5.0 5.0 0.00 0.00 0.00 46 1010.9
20260902202120 99 233 4.0 10.0 0.00 0.00 0.00 45 1010.7
20260902201616 103 249 9.0 9.0 0.00 0.00 0.00 42 1010.9
20260902201115 103 154 2.0 4.0 0.00 0.00 0.00 43 1011.2
20260902200610 103 216 3.0 8.0 0.00 0.00 0.00 43 1011.0
20260902200106 100 241 4.0 8.0 0.00 0.00 0.00 45 1010.9
20260902195601 99 230 4.0 7.0 0.00 0.00 0.00 46 1011.3
20260902195100 101 233 4.0 8.0 0.00 0.00 0.00 45 1011.0
20260902194554 100 228 7.0 9.0 0.00 0.00 0.00 46 1011.6
20260902194049 99 270 1.0 5.0 0.00 0.00 0.00 47 1011.5
20260902193546 100 265 2.0 3.0 0.00 0.00 0.00 46 1011.7
20260902193045 97 236 3.0 5.0 0.00 0.00 0.00 49 1011.8
20260902192543 99 277 7.0 9.0 0.00 0.00 0.00 47 1011.9
20260902192042 100 253 8.0 10.0 0.00 0.00 0.00 46 1011.9
20260902191538 98 244 3.0 7.0 0.00 0.00 0.00 48 1011.9
20260902191032 98 327 2.0 3.0 0.00 0.00 0.00 49 1012.2
20260902190528 98 220 6.0 6.0 0.00 0.00 0.00 49 1012.2
20260902190024 98 267 4.0 6.0 0.00 0.00 0.00 48 1012.1
20260902185519 98 221 5.0 8.0 0.00 0.00 0.00 49 1012.2
20260902185015 99 245 0.0 3.0 0.00 0.00 0.00 49 1012.4
20260902184510 100 279 3.0 7.0 0.00 0.00 0.00 48 1012.4
20260902184005 99 225 4.0 8.0 0.00 0.00 0.00 49 1012.4
20260902183501 98 280 4.0 13.0 0.00 0.00 0.00 50 1012.6
20260902182957 99 285 1.0 5.0 0.00 0.00 0.00 49 1012.7
20260902182453 98 216 5.0 10.0 0.00 0.00 0.00 49 1013.0
20260902181949 97 188 0.0 7.0 0.00 0.00 0.00 52 1013.0
20260902181445 98 277 3.0 10.0 0.00 0.00 0.00 49 1012.9
20260902180944 98 239 3.0 9.0 0.00 0.00 0.00 50 1013.2
20260902180439 98 226 5.0 9.0 0.00 0.00 0.00 50 1013.4
20260902175936 98 227 9.0 12.0 0.00 0.00 0.00 50 1013.5
20260902175430 97 220 6.0 13.0 0.00 0.00 0.00 51 1013.5
20260902174926 95 225 6.0 9.0 0.00 0.00 0.00 53 1013.6
20260902174423 97 241 7.0 13.0 0.00 0.00 0.00 51 1013.5
20260902173918 97 255 3.0 9.0 0.00 0.00 0.00 52 1013.9
20260902173417 97 265 6.0 6.0 0.00 0.00 0.00 51 1013.9
20260902172912 95 255 5.0 8.0 0.00 0.00 0.00 53 1013.9
20260902172411 96 210 3.0 11.0 0.00 0.00 0.00 52 1014.1
20260902171907 95 236 4.0 10.0 0.00 0.00 0.00 52 1014.6
20260902171402 97 356 4.0 10.0 0.00 0.00 0.00 50 1014.0
20260902170858 96 252 3.0 6.0 0.00 0.00 0.00 51 1014.3
20260902170353 96 270 5.0 11.0 0.00 0.00 0.00 54 1014.5
20260902165848 94 231 11.0 14.0 0.00 0.00 0.00 54 1014.6
20260902165347 93 81 1.0 11.0 0.00 0.00 0.00 58 1014.6
20260902164842 92 270 3.0 12.0 0.00 0.00 0.00 61 1014.8
20260902164337 94 259 6.0 9.0 0.00 0.00 0.00 57 1014.8
20260902163836 92 255 3.0 12.0 0.00 0.00 0.00 60 1014.8
20260902163331 93 234 7.0 15.0 0.00 0.00 0.00 61 1014.8
20260902162829 92 250 7.0 13.0 0.00 0.00 0.00 65 1014.7
20260902162325 92 249 11.0 12.0 0.00 0.00 0.00 65 1014.9
20260902161819 92 230 9.0 11.0 0.00 0.00 0.00 67 1014.9
20260902161315 92 247 12.0 13.0 0.00 0.00 0.00 67 1014.9
20260902160811 90 260 9.0 13.0 0.00 0.00 0.00 69 1015.0
20260902160306 89 243 11.0 13.0 0.00 0.00 0.00 70 1014.9
20260902155804 89 211 3.0 11.0 0.00 0.00 0.00 72 1015.1
20260902155306 90 232 8.0 12.0 0.00 0.00 0.00 71 1015.1
20260902154758 90 252 7.0 7.0 0.00 0.00 0.00 72 1015.0
20260902154254 88 225 4.0 9.0 0.00 0.00 0.00 75 1015.0
20260902153752 88 279 8.0 12.0 0.00 0.00 0.00 73 1015.0
20260902153247 89 218 3.0 13.0 0.00 0.00 0.00 74 1015.1
20260902152737 90 242 9.0 10.0 0.00 0.00 0.00 73 1015.0
20260902152233 88 249 11.0 17.0 0.00 0.00 0.00 75 1014.8
20260902151728 89 260 4.0 8.0 0.00 0.00 0.00 77 1014.9
20260902151229 87 216 9.0 11.0 0.00 0.00 0.00 77 1015.0
20260902150723 87 250 3.0 15.0 0.00 0.00 0.00 79 1015.0
20260902150219 88 223 5.0 7.0 0.00 0.00 0.00 77 1014.8
20260902145718 87 279 5.0 9.0 0.00 0.00 0.00 78 1015.0
20260902145213 87 291 6.0 8.0 0.00 0.00 0.00 80 1015.0
20260902144709 86 253 7.0 12.0 0.00 0.00 0.00 81 1015.0
20260902144205 85 254 6.0 13.0 0.00 0.00 0.00 83 1015.2
20260902143700 86 252 7.0 7.0 0.00 0.00 0.00 82 1015.2
20260902143155 84 273 3.0 8.0 0.00 0.00 0.00 83 1015.1
20260902142651 84 233 7.0 9.0 0.00 0.00 0.00 85 1015.1
20260902142147 83 234 9.0 9.0 0.00 0.00 0.00 85 1015.0
20260902141646 84 226 6.0 10.0 0.00 0.00 0.00 84 1015.2
20260902141141 83 278 6.0 14.0 0.00 0.00 0.00 85 1015.1
20260902140637 85 331 1.0 9.0 0.00 0.00 0.00 82 1015.0
20260902140132 85 243 4.0 8.0 0.00 0.00 0.00 82 1015.1
20260902135631 83 254 4.0 9.0 0.00 0.00 0.00 84 1015.0
20260902135127 82 279 2.0 5.0 0.00 0.00 0.00 86 1015.3
20260902134622 82 227 3.0 7.0 0.00 0.00 0.00 87 1015.0
20260902134121 82 253 6.0 6.0 0.00 0.00 0.00 87 1015.0
20260902133616 81 217 3.0 5.0 0.00 0.00 0.00 88 1015.0
20260902133111 79 259 2.0 3.0 0.00 0.00 0.00 90 1014.8
20260902132606 79 285 0.0 2.0 0.00 0.00 0.00 92 1014.9
20260902132101 78 240 0.0 3.0 0.00 0.00 0.00 93 1015.0
20260902131557 77 249 0.0 0.0 0.00 0.00 0.00 95 1014.8
20260902131052 76 240 0.0 1.0 0.00 0.00 0.00 95 1014.8
20260902130548 75 261 0.0 0.0 0.00 0.00 0.00 96 1014.7
20260902130043 75 261 0.0 0.0 0.00 0.00 0.00 97 1014.7
20260902125539 75 270 0.0 2.0 0.00 0.00 0.00 98 1014.4
20260902125034 74 262 0.0 1.0 0.00 0.00 0.00 99 1014.5
20260902124530 74 254 0.0 1.0 0.00 0.00 0.00 99 1014.4
20260902124025 74 255 0.0 0.0 0.00 0.00 0.00 99 1014.0
20260902123520 73 254 0.0 0.0 0.00 0.00 0.00 99 1014.3
20260902123015 73 261 0.0 2.0 0.00 0.00 0.00 98 1014.0
20260902122509 73 254 0.0 0.0 0.00 0.00 0.00 99 1014.4
20260902122005 73 254 0.0 1.0 0.00 0.00 0.00 99 1014.2
20260902121459 73 63 1.0 3.0 0.00 0.00 0.00 99 1014.3
20260902120954 73 77 2.0 2.0 0.00 0.00 0.00 99 1014.2
20260902120450 73 90 0.0 1.0 0.00 0.00 0.00 99 1014.0
20260902115949 73 270 0.0 0.0 0.00 0.00 0.00 99 1013.9
20260902115446 73 270 0.0 0.0 0.00 0.00 0.00 99 1013.9
20260902114943 73 270 0.0 0.0 0.00 0.00 0.00 99 1013.7
20260902114438 73 15 0.0 0.0 0.00 0.00 0.00 99 1013.7
20260902113933 73 261 0.0 0.0 0.00 0.00 0.00 99 1013.8
20260902113429 73 261 0.0 0.0 0.00 0.00 0.00 99 1013.8
20260902112928 73 74 0.0 0.0 0.00 0.00 0.00 99 1014.0
20260902112424 73 74 0.0 0.0 0.00 0.00 0.00 99 1014.0
20260902111920 73 74 0.0 0.0 0.00 0.00 0.00 98 1013.9
20260902111417 73 74 0.0 0.0 0.00 0.00 0.00 98 1014.1
20260902110912 73 74 0.0 0.0 0.00 0.00 0.00 98 1013.8
20260902110407 73 74 0.0 1.0 0.00 0.00 0.00 98 1014.0
20260902105902 73 66 0.0 2.0 0.00 0.00 0.00 98 1013.8
20260902105357 73 82 1.0 1.0 0.00 0.00 0.00 98 1013.9
20260902104851 73 8 0.0 0.0 0.00 0.00 0.00 98 1014.0
20260902104347 73 8 0.0 0.0 0.00 0.00 0.00 98 1014.0
20260902103842 73 8 0.0 0.0 0.00 0.00 0.00 98 1014.2
20260902103337 73 8 0.0 0.0 0.00 0.00 0.00 98 1013.8
20260902102831 73 8 0.0 0.0 0.00 0.00 0.00 97 1013.7
20260902102330 73 23 0.0 0.0 0.00 0.00 0.00 97 1013.8
20260902101825 73 15 0.0 0.0 0.00 0.00 0.00 97 1014.0
20260902101324 73 15 0.0 0.0 0.00 0.00 0.00 97 1013.7
20260902100818 74 15 0.0 0.0 0.00 0.00 0.00 97 1013.9
20260902100312 74 15 0.0 0.0 0.00 0.00 0.00 97 1013.9
20260902095807 74 15 0.0 0.0 0.00 0.00 0.00 96 1013.8
20260902095306 74 15 0.0 1.0 0.00 0.00 0.00 96 1013.8
20260902094757 74 15 0.0 0.0 0.00 0.00 0.00 95 1013.8
20260902094253 74 15 0.0 0.0 0.00 0.00 0.00 96 1013.7
20260902093752 75 15 0.0 0.0 0.00 0.00 0.00 95 1013.7
20260902093248 74 15 0.0 0.0 0.00 0.00 0.00 95 1013.7
20260902092746 74 15 0.0 0.0 0.00 0.00 0.00 95 1013.4
20260902092242 75 15 0.0 0.0 0.00 0.00 0.00 95 1013.7
20260902091741 75 261 0.0 0.0 0.00 0.00 0.00 95 1013.8
20260902091237 75 261 0.0 0.0 0.00 0.00 0.00 95 1013.6
20260902090733 75 261 0.0 0.0 0.00 0.00 0.00 95 1013.5
20260902090232 75 261 0.0 2.0 0.00 0.00 0.00 95 1013.9
20260902085727 75 255 3.0 3.0 0.00 0.00 0.00 95 1013.6
20260902085222 75 254 2.0 3.0 0.00 0.00 0.00 95 1013.7
20260902084718 75 243 2.0 2.0 0.00 0.00 0.00 95 1013.5
20260902084214 75 220 0.0 2.0 0.00 0.00 0.00 95 1013.5
20260902083709 75 249 1.0 2.0 0.00 0.00 0.00 94 1013.6
20260902083208 75 246 0.0 1.0 0.00 0.00 0.00 94 1013.3
20260902082704 75 237 2.0 3.0 0.00 0.00 0.00 95 1013.4
20260902082200 75 259 3.0 4.0 0.00 0.00 0.00 95 1013.4
20260902081656 75 257 2.0 3.0 0.00 0.00 0.00 95 1013.6
20260902081151 75 240 1.0 1.0 0.00 0.00 0.00 95 1013.5
20260902080646 75 225 2.0 2.0 0.00 0.00 0.00 95 1013.9
20260902080143 75 195 0.0 0.0 0.00 0.00 0.00 95 1013.9
20260902075643 75 195 0.0 2.0 0.00 0.00 0.00 95 1013.9
20260902075139 75 203 0.0 0.0 0.00 0.00 0.00 95 1013.7
20260902074634 75 203 1.0 1.0 0.00 0.00 0.00 95 1013.8
20260902074129 75 254 0.0 0.0 0.00 0.00 0.00 94 1014.0
20260902073624 75 0 0.0 0.0 0.00 0.00 0.00 94 1014.0
20260902073120 75 270 0.0 0.0 0.00 0.00 0.00 94 1013.9
20260902072616 75 270 0.0 0.0 0.00 0.00 0.00 94 1014.1
20260902072112 75 279 0.0 0.0 0.00 0.00 0.00 94 1014.1
20260902071607 76 0 1.0 1.0 0.00 0.00 0.00 93 1014.1